Tracking 35048 objects as of 19-Aug-2026
HD Live streaming from Space Station
objects crossing your sky now

COSMOS 2028


COSMOS 2028 is no longer on orbit


NORAD ID: 20073
Int'l Code: 1989-047A
Launch date: June 16, 1989
Source: Commonwealth of Independent States (former USSR) (CIS)
Launch site: TYURATAM MISSILE AND SPACE COMPLEX (TTMTR)
Decay date: 1989-07-06
Your satellite tracking list
Your tracking list is empty




NASA's NSSDC Master Catalog

Two Line Element Set (TLE):
1 20073U 89047  A 89186.70293729  .00261830 +53407-5 +14170-3 0  9991
2 20073 069.9889 031.9847 0028230 121.2427 238.9957 16.18539102003113
Source of the keplerian elements: AFSPC